Stornoway, United Kingdom

8:15 AM BST on August 23, 2017 (GMT +0100)
Stornoway

Weather History for EGPO - January, 2013

Change the Weather History Date:

Thursday, January 3, 2013

  Actual Average Record
Temperature  
Mean Temperature 48 °F -  
Max Temperature 52 °F 44 °F 52 °F (2013)
Min Temperature 44 °F 35 °F 30 °F (2003)
Degree Days  
Heating Degree Days 17    
Moisture  
Dew Point 44 °F    
Average Humidity 85    
Maximum Humidity 100    
Minimum Humidity 76    
Precipitation  
Precipitation 0.03 in 0.16 in - ()
Sea Level Pressure  
Sea Level Pressure 30.09 in    
Wind  
Wind Speed 16 mph ()    
Max Wind Speed 26 mph    
Max Gust Speed 38 mph    
Visibility 6.1 miles    
Events Rain    
Averages and records for this station are not official NWS values.
T = Trace of Precipitation, MM = Missing Value Source: Averaged Metar Reports

Daily Weather History Graph

Daily Weather History Graph

Search for Another Location

Airport or City:

Trip Planner

Search our weather history database for the weather conditions in past years. The results will help you decide how hot, cold, wet, or windy it might be!

Date:

Astronomy

Jan. 03, 2013 Rise Set
Actual Time 9:11 AM GMT 3:48 PM GMT
Civil Twilight 8:20 AM GMT 4:39 PM GMT
Nautical Twilight 7:27 AM GMT 5:32 PM GMT
Astronomical Twilight 6:39 AM GMT 6:20 PM GMT
Moon 11:45 PM GMT (1/3) 10:48 AM GMT (1/3)
Length of Visible Light 8h 19m
Length of Day
6h 37m
Waning Gibbous, 68% of the Moon is Illuminated
Jan 3
Waning Gibbous
Jan 5
Last Quarter
Jan 11
New
Jan 18
First Quarter
Jan 27
Full

Hourly Weather History & Observations

Time (GMT) Temp. Windchill Dew Point Humidity Pressure Visibility Wind Dir Wind Speed Gust Speed Precip Events Conditions
12:20 AM 48.2 °F - 44.6 °F 87% 29.86 in 5.0 mi WSW 19.6 mph - N/A   Partly Cloudy
12:50 AM 48.2 °F - 42.8 °F 82% 29.86 in 6.2 mi West 23.0 mph - N/A   Unknown
1:20 AM 48.2 °F - 42.8 °F 82% 29.89 in 6.2 mi West 23.0 mph - N/A   Unknown
1:50 AM 48.2 °F - 42.8 °F 82% 29.89 in 5.6 mi West 23.0 mph - N/A   Unknown
2:20 AM 48.2 °F - 42.8 °F 82% 29.92 in 5.6 mi West 24.2 mph - N/A   Unknown
2:50 AM 49 °F - 44 °F 76% 29.94 in 6 mi West 26.5 mph - -   Light Haze
2:50 AM 48.2 °F - 42.8 °F 82% 29.95 in 5.0 mi West 26.5 mph - N/A   Partly Cloudy
3:20 AM 48.2 °F - 42.8 °F 82% 29.95 in 5.6 mi West 26.5 mph 38.0 mph N/A   Partly Cloudy
3:50 AM 48.2 °F - 42.8 °F 82% 29.95 in 5.6 mi West 23.0 mph - N/A   Unknown
4:20 AM 46.4 °F 38.1 °F 41.0 °F 81% 29.98 in 6.2 mi West 24.2 mph 35.7 mph N/A   Partly Cloudy
4:50 AM 46.4 °F 39.0 °F 41.0 °F 81% 30.01 in 6.2 mi WSW 19.6 mph - N/A   Unknown
5:20 AM 48.2 °F - 42.8 °F 82% 30.01 in 4.3 mi West 18.4 mph - N/A   Scattered Clouds
5:50 AM 47 °F - 43 °F 80% 30.04 in 7 mi West 17.3 mph - - Rain Rain
5:50 AM 46.4 °F 39.8 °F 41.0 °F 81% 30.04 in 6.2 mi West 16.1 mph - N/A   Scattered Clouds
6:20 AM 44.6 °F 39.2 °F 41.0 °F 87% 30.06 in 6.2 mi SW 10.4 mph - N/A   Scattered Clouds
6:50 AM 44.6 °F 40.2 °F 41.0 °F 87% 30.09 in 6.2 mi SW 8.1 mph - N/A   Scattered Clouds
7:20 AM 44.6 °F 40.2 °F 39.2 °F 81% 30.09 in 6.2 mi SW 8.1 mph - N/A   Scattered Clouds
7:50 AM 44.6 °F 39.2 °F 39.2 °F 81% 30.12 in 6.2 mi SW 10.4 mph - N/A   Scattered Clouds
8:20 AM 44.6 °F 39.7 °F 39.2 °F 81% 30.12 in 6.2 mi SSW 9.2 mph - N/A   Scattered Clouds
8:50 AM 46 °F - 42 °F 80% 30.14 in 6 mi SW 13.8 mph - -   Light Haze
8:50 AM 46.4 °F 41.5 °F 41.0 °F 81% 30.15 in 6.2 mi SW 10.4 mph - N/A   Scattered Clouds
9:20 AM 44.6 °F 39.2 °F 39.2 °F 81% 30.15 in 6.2 mi SW 10.4 mph - N/A   Scattered Clouds
9:50 AM 44.6 °F 41.4 °F 41.0 °F 87% 30.15 in 6.2 mi SW 5.8 mph - N/A   Scattered Clouds
10:20 AM 44.6 °F 39.7 °F 39.2 °F 81% 30.18 in 6.2 mi South 9.2 mph - N/A   Partly Cloudy
10:50 AM 46.4 °F 42.9 °F 41.0 °F 81% 30.15 in 6.2 mi SSW 6.9 mph - N/A   Partly Cloudy
11:20 AM 44.6 °F 40.2 °F 39.2 °F 81% 30.15 in 6.2 mi SSW 8.1 mph - N/A   Partly Cloudy
11:50 AM 45 °F - 42 °F 83% 30.16 in 7 mi SSW 12.7 mph - -   Scattered Clouds
11:50 AM 44.6 °F 40.2 °F 39.2 °F 81% 30.15 in 6.2 mi SSW 8.1 mph - N/A   Partly Cloudy
12:20 PM 44.6 °F 40.2 °F 39.2 °F 81% 30.15 in 6.2 mi SSW 8.1 mph - N/A   Partly Cloudy
12:50 PM 48.2 °F - 42.8 °F 82% 30.15 in 6.2 mi SW 9.2 mph - N/A   Partly Cloudy
1:20 PM 48.2 °F - 42.8 °F 82% 30.15 in 6.2 mi SW 10.4 mph - N/A   Partly Cloudy
1:50 PM 48.2 °F - 42.8 °F 82% 30.15 in 6.2 mi SSW 11.5 mph - N/A   Partly Cloudy
2:20 PM 50.0 °F - 44.6 °F 82% 30.15 in 6.2 mi SW 11.5 mph - N/A   Partly Cloudy
2:50 PM 49 °F - 46 °F 87% 30.14 in 7 mi SSW 13.8 mph - -   Scattered Clouds
2:50 PM 48.2 °F - 44.6 °F 87% 30.15 in 6.2 mi SSW 12.7 mph - N/A   Mostly Cloudy
3:20 PM 50.0 °F - 50.0 °F 100% 30.15 in 6.2 mi SSW 10.4 mph - N/A   Scattered Clouds
3:50 PM 51.8 °F - 50.0 °F 94% 30.15 in 6.2 mi SSW 12.7 mph - N/A   Mostly Cloudy
4:20 PM 51.8 °F - 50.0 °F 94% 30.15 in 6.2 mi South 13.8 mph - N/A   Mostly Cloudy
4:50 PM 50.0 °F - 50.0 °F 100% 30.15 in 6.2 mi SSW 15.0 mph - N/A   Scattered Clouds
5:20 PM 51.8 °F - 50.0 °F 94% 30.12 in 6.2 mi SSW 21.9 mph - N/A   Scattered Clouds
5:50 PM 50 °F - 48 °F 91% 30.14 in 8 mi SSW 23.0 mph - - Rain Light Rain Showers
5:50 PM 51.8 °F - 50.0 °F 94% 30.12 in 6.2 mi SSW 21.9 mph - N/A   Mostly Cloudy
6:20 PM 51.8 °F - 50.0 °F 94% 30.12 in 6.2 mi South 18.4 mph - N/A Rain Light Rain
6:50 PM 51.8 °F - 50.0 °F 94% 30.12 in 5.0 mi South 17.3 mph - N/A Rain Light Rain
7:20 PM 50.0 °F - 50.0 °F 100% 30.15 in 5.0 mi SSW 15.0 mph - N/A Rain Light Rain
7:50 PM 51.8 °F - 50.0 °F 94% 30.12 in 6.2 mi SSW 17.3 mph - N/A Rain Light Rain
8:20 PM 51.8 °F - 46.4 °F 82% 30.15 in 6.2 mi SSW 17.3 mph 29.9 mph N/A   Mostly Cloudy
8:50 PM 51 °F - 50 °F 93% 30.14 in 10 mi SW 25.3 mph - - Rain Rain
8:50 PM 51.8 °F - 46.4 °F 82% 30.15 in 6.2 mi SW 19.6 mph - N/A   Mostly Cloudy
9:20 PM 51.8 °F - 46.4 °F 82% 30.15 in 6.2 mi SW 18.4 mph - N/A   Partly Cloudy
9:50 PM 51.8 °F - 46.4 °F 82% 30.15 in 6.2 mi SW 19.6 mph - N/A   Unknown
10:20 PM 51.8 °F - 46.4 °F 82% 30.15 in 5.6 mi SW 18.4 mph - N/A   Unknown
10:50 PM 51.8 °F - 46.4 °F 82% 30.15 in 5.6 mi SW 20.7 mph - N/A   Unknown
11:20 PM 51.8 °F - 46.4 °F 82% 30.18 in 5.6 mi SW 17.3 mph - N/A   Unknown
11:50 PM 52 °F - 48 °F 82% 30.19 in 6 mi SW 18.4 mph - -   Light Haze
11:50 PM 51.8 °F - 46.4 °F 82% 30.18 in 5.6 mi SW 15.0 mph - N/A   Unknown